{"data":{"norad_id":66667,"intl_designator":"2025-276B","name":"PELICAN-5","alt_names":[],"object_type":"PAYLOAD","status":"ACTIVE","operator":null,"country":"US","launch_date":"2025-11-28","launch_site_code":"AFWTR","launch_vehicle":null,"mission":null,"orbit_class":"UNKNOWN","rcs_meters":null,"size_class":null,"mass_kg":null,"dimensions":null,"purposes":["earth_obs"],"wikipedia_slug":null,"has_3d_model":false,"image_url":null,"decayed_at":null,"tle_current":{"epoch":"2026-09-18T23:11:59.098272Z","epoch_age_seconds":147030,"freshness":"FRESH","line1":"1 66667U 25276B   26261.96665623  .00005686  00000+0  16298-3 0  9996","line2":"2 66667  97.3802 337.1985 0001132 164.3356 195.7924 15.36304782 44894","mean_motion":15.36304782,"eccentricity":0.0001132,"inclination_deg":97.3802,"raan_deg":337.1985,"arg_perigee_deg":164.3356,"mean_anomaly_deg":195.7924,"bstar":0.00016298,"rev_number":4489,"period_min":93.731401273475,"perigee_km":456.27393399201,"apogee_km":457.82141980286,"semimajor_km":6835.1846768974,"source":"CELESTRAK","updated_at":"2026-09-20T09:00:34.724945Z"}}}